Wind_Speed
11 10 11 11 10 8 7 5 4 3 2 1 0 1 1 2 3 3 4 4 5 5 4 4 4 4 3 3 3 3 4 4 4 4 4 5 5 6 6 6 7 6 6
12 11 12 12 11 10 8 7 6 5 4 3 2 1 1 1 2 2 3 3 4 4 3 3 3 3 3 3 3 3 4 4 4 4 5 5 6 6 7 7 7 8 8
13 12 12 13 13 11 10 9 8 7 6 5 4 4 3 3 3 3 3 3 3 4 4 4 4 3 3 3 3 4 4 5 5 5 6 6 6 7 8 8 9 9 10
14 13 13 14 13 12 11 10 9 9 8 7 6 6 5 5 5 4 4 4 4 5 5 5 5 4 4 4 5 5 5 6 6 7 8 8 8 8 9 10 10 11 11
15 14 14 14 14 13 12 11 11 10 10 9 8 7 7 7 7 6 6 6 6 6 6 6 6 6 6 6 6 7 7 8 8 9 9 10 10 11 11 12 12 12 13
15 15 15 15 15 14 13 13 12 11 11 11 10 9 9 9 8 8 8 8 8 8 8 8 8 8 7 7 8 8 9 9 10 11 11 12 13 13 14 14 14 14 15
16 15 15 15 16 15 14 14 13 13 12 12 12 11 11 11 11 10 10 10 10 9 10 9 9 9 9 10 10 10 11 12 13 14 14 15 15 16 16 16 17 17 18
17 16 15 14 15 15 16 15 14 14 13 13 12 12 12 12 12 12 12 12 11 11 11 11 11 11 12 12 13 13 14 14 15 16 16 17 17 18 18 18 19 20 20
17 16 15 15 15 15 15 16 15 15 14 14 14 14 14 14 14 14 14 14 13 13 14 13 14 14 15 15 16 16 16 17 17 18 18 19 20 21 21 22 22 23 24
17 17 17 16 15 15 15 15 15 14 15 15 15 14 14 14 15 15 15 15 15 15 16 16 17 17 18 18 18 19 19 19 20 21 21 22 23 23 24 25 25 26 27
17 17 18 17 15 15 16 16 16 16 16 16 15 15 15 15 15 16 16 16 16 17 17 18 19 20 20 21 21 21 22 22 23 23 24 25 25 26 26 27 28 29 30
18 18 18 18 17 17 16 16 17 17 17 17 16 16 16 16 17 17 18 18 18 19 20 20 21 22 23 23 23 24 24 25 25 26 26 27 28 29 29 30 31 32 33
17 17 17 18 18 18 18 18 18 18 18 18 18 17 17 18 19 19 19 20 21 21 22 23 23 23 24 25 26 26 27 27 28 29 29 30 31 31 32 33 33 34 35
16 17 17 17 18 18 18 18 18 19 19 20 19 19 20 21 21 21 21 22 23 23 24 24 24 25 26 27 28 28 29 29 30 31 32 32 33 34 35 35 36 37 38
17 17 17 18 18 18 19 19 20 20 21 21 21 21 21 22 22 23 23 24 25 26 26 26 27 28 28 29 30 30 31 32 33 34 34 35 36 37 37 38 39 40 41
17 17 18 18 18 19 19 19 20 21 22 21 22 22 23 23 24 25 25 26 27 28 29 29 30 30 31 32 32 32 33 34 35 36 36 38 39 40 40 41 42 43 44
17 18 18 19 19 20 20 20 21 22 22 23 24 25 25 26 26 27 28 29 30 30 31 31 32 33 34 34 35 35 36 37 38 38 39 40 41 42 43 44 44 45 46
18 18 19 20 20 21 21 22 22 23 24 25 25 26 27 27 28 29 30 32 32 33 33 34 35 36 36 37 38 38 39 40 40 41 41 42 43 44 45 46 47 48 49
19 20 21 22 22 22 23 24 25 26 26 27 27 28 29 30 32 32 33 34 35 36 36 37 37 38 39 39 40 40 41 42 43 44 45 45 46 47 48 49 51 52 53
21 22 22 23 24 24 26 27 28 29 29 30 30 31 32 33 34 34 35 36 36 37 38 39 39 40 41 42 43 43 44 45 46 47 47 48 49 51 52 53 54 55 56
22 23 23 24 25 25 26 27 29 30 30 31 32 33 35 36 36 37 38 38 39 40 40 41 41 42 43 44 45 46 47 47 48 49 50 51 52 53 54 55 56 56 57
24 24 25 26 27 27 28 28 29 31 32 33 34 35 36 37 38 39 39 40 41 42 42 43 44 45 46 47 48 48 49 50 51 52 53 54 55 56 56 57 58 58 58
25 25 26 27 28 29 29 30 31 32 33 34 35 36 37 39 39 40 41 42 43 44 45 46 47 48 48 49 50 51 52 53 54 55 56 56 57 58 58 59 59 60 60
27 28 28 29 29 30 31 32 33 34 35 36 37 38 39 40 41 42 43 44 45 46 47 48 49 50 51 52 53 54 54 55 56 57 58 58 58 59 60 61 61 61 61
30 30 30 31 32 32 33 34 35 36 37 38 39 40 40 41 42 43 44 45 46 47 48 49 50 51 52 53 54 55 56 57 58 59 60 60 61 61 62 62 62 62 62
31 32 32 33 33 34 35 35 36 37 38 39 40 41 42 42 43 44 45 46 47 48 49 49 50 52 53 54 55 56 57 58 59 60 61 61 61 62 62 61 61 61 60
Wind_Direction
217 218 214 212 213 215 217 220 223 219 210 199 136 77 58 48 44 43 39 37 34 33 35 41 45 42 41 38 41 36 27 19 12 8 7 9 2 355 347 343 340 334 321
219 222 219 216 217 219 222 223 226 226 231 237 247 260 301 341 357 7 9 12 13 13 13 15 16 16 15 13 11 6 1 356 351 350 352 348 349 351 348 344 339 333 327
224 227 225 220 220 222 224 225 227 230 234 241 251 257 267 281 303 323 333 341 344 345 343 341 343 344 344 343 337 334 333 334 331 328 329 331 331 332 331 331 328 324 321
225 226 224 220 219 221 226 227 230 234 238 242 249 256 264 271 282 291 302 311 317 321 326 330 330 326 324 321 320 317 317 319 320 319 319 319 318 320 319 319 318 316 314
225 225 223 220 219 221 225 228 233 239 243 246 250 257 262 266 273 280 287 294 298 303 310 315 316 315 314 311 311 309 310 312 312 314 314 313 312 313 312 312 311 311 309
225 225 225 225 221 221 225 230 236 242 246 249 252 257 262 267 272 277 279 284 289 292 295 298 302 305 304 306 307 307 308 309 309 309 309 309 308 307 306 306 307 307 305
225 226 227 228 224 225 230 235 239 245 248 250 253 258 263 268 272 274 277 279 283 286 287 291 297 299 299 301 302 301 302 303 305 306 305 306 305 304 304 303 303 304 304
223 226 229 230 229 230 234 239 243 246 249 252 255 259 264 268 271 274 273 275 281 284 286 288 290 293 294 296 298 300 300 301 303 304 304 304 304 304 303 303 302 303 305
226 228 230 232 232 234 236 238 243 247 250 254 259 263 264 265 269 272 274 276 279 282 283 285 288 290 291 293 294 296 297 298 299 300 301 303 304 304 304 303 302 302 302
227 227 229 231 234 237 239 241 244 249 252 256 261 264 266 267 268 271 274 276 280 283 285 286 288 289 291 292 293 293 295 297 298 299 300 301 302 302 302 302 301 300 299
233 232 231 232 234 239 241 243 246 250 253 259 263 266 266 267 270 271 274 277 280 282 284 285 287 288 290 291 292 292 293 294 294 296 297 298 299 299 299 299 299 299 299
236 235 234 234 237 240 243 246 249 252 255 258 262 265 267 270 273 274 275 277 280 282 284 286 288 289 290 290 290 291 291 292 293 294 295 296 297 298 298 298 298 298 299
237 236 236 237 240 243 245 248 251 254 257 258 261 264 267 270 274 277 278 280 281 283 286 288 289 290 290 290 290 290 290 291 292 293 294 295 295 296 296 297 298 298 299
235 237 237 240 244 246 247 250 253 255 259 261 262 264 267 270 273 276 279 282 284 284 286 288 289 289 290 290 290 290 290 291 292 293 294 295 295 295 295 296 297 297 298
240 241 242 244 246 250 252 255 257 259 262 263 265 267 270 271 273 275 278 281 283 284 286 288 288 288 289 290 291 291 291 292 293 294 294 294 294 295 295 296 296 296 297
245 246 248 251 252 253 254 257 259 261 263 266 268 271 273 275 276 278 279 280 282 283 285 285 286 287 289 290 290 290 290 291 292 293 294 294 294 294 294 295 296 296 297
249 250 253 255 257 258 259 260 262 264 266 268 270 272 274 276 277 277 279 280 282 283 284 284 285 286 288 289 290 290 291 291 292 294 294 294 295 295 295 295 295 296 297
252 254 257 259 261 260 261 263 265 267 269 271 272 273 275 276 277 278 279 281 282 283 284 284 285 286 288 289 289 290 290 291 292 293 293 294 294 295 295 295 295 296 296
255 257 260 262 262 263 265 266 268 270 271 272 274 275 276 277 278 279 280 282 283 284 284 285 285 286 287 288 288 289 289 290 291 292 292 293 294 294 295 295 295 296 296
257 260 263 264 265 266 268 268 269 271 271 272 274 276 277 278 279 279 281 283 284 285 286 286 287 287 288 288 288 288 289 290 291 291 292 292 292 294 294 294 295 296 296
261 264 266 268 268 269 271 272 272 273 273 274 276 276 277 279 280 281 282 284 285 286 286 287 288 288 288 288 289 289 290 290 291 291 292 293 293 294 295 294 295 295 296
264 266 268 270 270 271 272 274 275 276 276 277 277 278 279 280 282 283 284 284 285 286 287 287 288 288 289 288 289 289 290 290 291 291 292 293 294 295 295 296 296 296 296
265 268 270 272 273 273 273 275 276 277 278 279 280 281 282 283 284 284 285 285 286 286 287 287 288 288 289 289 289 289 290 290 291 292 293 293 294 294 295 295 296 296 296
267 269 271 273 274 275 276 277 279 280 281 282 282 283 284 285 285 286 286 286 287 287 287 287 288 288 288 289 289 290 290 291 292 292 293 294 294 294 295 295 295 295 295
270 272 273 274 275 276 277 279 280 281 282 283 284 285 285 286 286 287 287 287 288 288 288 288 289 289 289 289 290 291 291 292 293 293 293 294 295 295 295 295 295 295 295
272 274 274 276 277 278 279 280 281 282 284 285 286 287 287 287 288 288 289 289 290 290 290 290 291 291 291 291 292 292 293 293 293 293 293 294 295 295 295 295 295 295 295
Height
5867 5869 5871 5873 5875 5876 5878 5879 5880 5880 5881 5881 5882 5882 5881 5881 5881 5880 5880 5879 5878 5878 5877 5877 5877 5876 5876 5876 5876 5876 5876 5876 5876 5876 5875 5874 5873 5873 5871 5871 5870 5870 5869
5865 5867 5869 5871 5873 5875 5876 5877 5879 5880 5880 5881 5881 5882 5882 5881 5881 5881 5880 5880 5879 5878 5878 5877 5877 5877 5877 5877 5877 5877 5876 5876 5876 5876 5875 5874 5873 5872 5871 5870 5870 5869 5868
5862 5865 5867 5869 5871 5873 5875 5876 5877 5879 5879 5880 5881 5881 5881 5881 5881 5881 5880 5880 5879 5878 5878 5877 5877 5877 5876 5876 5876 5876 5876 5876 5875 5875 5875 5874 5873 5872 5871 5870 5869 5868 5867
5860 5862 5864 5866 5869 5871 5873 5874 5876 5877 5878 5879 5879 5880 5880 5880 5880 5880 5879 5879 5879 5878 5877 5877 5876 5876 5876 5875 5875 5875 5875 5875 5874 5874 5874 5873 5872 5871 5870 5869 5868 5867 5866
5857 5859 5862 5864 5866 5868 5870 5872 5874 5875 5876 5877 5878 5878 5879 5879 5879 5879 5878 5878 5878 5877 5877 5876 5875 5875 5874 5874 5874 5874 5874 5874 5873 5873 5872 5871 5870 5869 5868 5867 5866 5865 5864
5854 5857 5859 5861 5863 5866 5868 5870 5871 5873 5874 5875 5876 5876 5877 5877 5877 5877 5877 5877 5876 5876 5875 5875 5874 5873 5873 5873 5873 5873 5872 5872 5871 5871 5870 5869 5868 5867 5866 5865 5864 5862 5861
5851 5854 5856 5859 5861 5863 5865 5867 5869 5870 5871 5872 5873 5874 5874 5875 5875 5875 5875 5874 5874 5874 5873 5873 5872 5872 5871 5871 5871 5871 5870 5869 5869 5868 5867 5866 5865 5864 5862 5861 5860 5858 5857
5848 5851 5853 5855 5858 5860 5862 5864 5866 5867 5868 5869 5870 5871 5871 5872 5872 5872 5872 5872 5872 5872 5871 5871 5870 5870 5869 5869 5869 5868 5867 5867 5866 5865 5864 5862 5861 5859 5858 5857 5855 5854 5852
5845 5847 5850 5852 5854 5857 5859 5861 5862 5864 5865 5866 5867 5868 5868 5869 5869 5869 5869 5869 5869 5869 5868 5868 5867 5867 5866 5866 5865 5865 5864 5863 5862 5860 5859 5858 5856 5855 5853 5852 5850 5848 5847
5841 5844 5846 5849 5851 5853 5855 5857 5859 5860 5861 5863 5863 5864 5865 5865 5865 5865 5865 5865 5865 5865 5865 5864 5864 5863 5862 5862 5861 5860 5859 5858 5857 5855 5854 5852 5851 5849 5847 5846 5844 5842 5840
5838 5840 5843 5845 5847 5849 5851 5853 5855 5856 5858 5858 5859 5860 5861 5861 5861 5861 5861 5861 5861 5861 5860 5860 5859 5858 5858 5857 5856 5855 5854 5853 5851 5850 5848 5846 5844 5843 5841 5838 5836 5834 5832
5834 5836 5839 5841 5843 5845 5847 5849 5851 5852 5853 5854 5855 5856 5856 5857 5857 5857 5857 5857 5856 5856 5855 5855 5854 5853 5852 5851 5850 5849 5847 5846 5845 5843 5841 5840 5838 5835 5833 5830 5828 5826 5823
5830 5832 5834 5837 5839 5841 5843 5845 5846 5847 5848 5849 5850 5851 5852 5852 5852 5852 5852 5851 5851 5850 5850 5849 5848 5847 5846 5844 5843 5842 5840 5839 5837 5836 5834 5832 5829 5827 5824 5822 5819 5816 5813
5826 5828 5830 5832 5835 5836 5838 5840 5841 5842 5844 5844 5845 5846 5846 5847 5847 5846 5846 5846 5845 5844 5844 5843 5841 5840 5839 5837 5836 5834 5833 5831 5829 5827 5825 5823 5821 5818 5815 5813 5810 5807 5804
5822 5824 5826 5828 5830 5831 5833 5834 5836 5837 5838 5839 5839 5840 5840 5840 5840 5840 5840 5839 5839 5838 5837 5836 5835 5833 5832 5830 5828 5826 5824 5823 5821 5819 5816 5814 5811 5808 5806 5803 5800 5796 5793
5818 5820 5822 5823 5825 5826 5828 5829 5830 5831 5832 5833 5833 5833 5833 5833 5833 5833 5832 5832 5831 5830 5830 5828 5827 5825 5823 5822 5820 5818 5816 5813 5811 5809 5806 5803 5800 5797 5794 5791 5788 5784 5781
5814 5815 5817 5818 5820 5821 5822 5823 5824 5825 5826 5826 5826 5826 5826 5826 5826 5825 5825 5824 5823 5822 5821 5820 5818 5816 5814 5812 5810 5808 5805 5803 5800 5798 5795 5792 5789 5786 5782 5779 5775 5772 5768
5809 5810 5812 5813 5814 5815 5816 5817 5818 5818 5819 5819 5819 5819 5818 5818 5818 5817 5816 5815 5814 5813 5811 5810 5808 5807 5804 5802 5800 5797 5795 5792 5789 5786 5783 5780 5776 5773 5769 5766 5762 5758 5754
5804 5805 5806 5807 5808 5809 5809 5810 5811 5811 5812 5812 5811 5811 5810 5810 5809 5808 5807 5806 5804 5803 5801 5799 5797 5795 5793 5791 5788 5786 5783 5780 5777 5774 5770 5767 5763 5759 5755 5751 5747 5743 5738
5798 5799 5799 5800 5801 5802 5802 5803 5803 5803 5803 5803 5803 5802 5801 5800 5799 5798 5797 5795 5794 5792 5790 5788 5786 5784 5781 5778 5776 5773 5770 5767 5763 5760 5756 5753 5749 5745 5740 5736 5731 5727 5722
5791 5792 5793 5793 5794 5794 5794 5794 5794 5794 5794 5794 5793 5792 5791 5790 5789 5788 5786 5785 5782 5780 5778 5776 5774 5771 5768 5766 5763 5759 5756 5753 5749 5746 5742 5738 5733 5729 5724 5719 5715 5710 5705
5785 5785 5786 5786 5786 5786 5786 5786 5786 5785 5785 5784 5783 5782 5781 5780 5778 5777 5775 5773 5771 5768 5766 5763 5761 5758 5755 5752 5748 5745 5741 5738 5734 5730 5726 5722 5717 5712 5707 5703 5698 5692 5687
5777 5777 5778 5778 5778 5778 5777 5777 5777 5776 5775 5774 5773 5772 5770 5768 5767 5765 5763 5760 5758 5755 5752 5749 5746 5743 5740 5736 5733 5729 5726 5722 5718 5713 5709 5705 5700 5695 5690 5685 5680 5674 5669
5769 5769 5769 5769 5769 5769 5768 5768 5767 5766 5765 5763 5762 5760 5758 5756 5754 5752 5749 5747 5744 5741 5738 5735 5731 5728 5724 5721 5717 5713 5709 5705 5700 5696 5691 5686 5682 5677 5672 5666 5661 5655 5650
5760 5760 5760 5760 5759 5759 5758 5757 5756 5755 5754 5752 5750 5748 5746 5743 5741 5738 5735 5732 5729 5726 5723 5719 5716 5712 5708 5704 5700 5696 5691 5687 5682 5677 5673 5668 5663 5658 5652 5647 5641 5636 5630
5751 5751 5750 5750 5749 5748 5747 5746 5745 5743 5742 5740 5738 5735 5733 5730 5727 5724 5721 5718 5714 5711 5707 5703 5699 5695 5691 5687 5683 5678 5674 5669 5664 5659 5654 5649 5644 5638 5633 5627 5622 5616 5611